DLH8VU EDDF-BIKF

Flight info

Callsign DLH8VU
Flight time N/A
Altitude 34000
Route OBOKA2E/07C OBOKA Z28 DIBIR DCT BUDIP DCT GODOS DCT ATSIX/M077F340 DCT ALDAN DCT ASRUN ASRUN3K
Aircraft A321/M-SDE2E3FGIJ1LORWXYZ/HB1

Departure

Time N/A
Airport Frankfurt Main Airport (EDDF)

Arrival

Time 2026-04-30 13:15
Airport Keflavik International Airport (BIKF)
Time Latitude Longitude Altitude Speed Heading
2026-04-30 10:36 52.23492 4.78941 34396 ft 459 kts 326°
2026-04-30 10:36 52.25991 4.75693 34399 ft 459 kts 326°
2026-04-30 10:36 52.30988 4.69191 34398 ft 460 kts 326°
2026-04-30 10:37 52.35951 4.62698 34403 ft 460 kts 325°
2026-04-30 10:37 52.40945 4.56146 34403 ft 460 kts 325°
2026-04-30 10:38 52.45933 4.49582 34408 ft 460 kts 325°
2026-04-30 10:38 52.50921 4.42992 34413 ft 460 kts 325°
2026-04-30 10:39 52.55904 4.36388 34422 ft 460 kts 325°
2026-04-30 10:39 52.60893 4.29770 34420 ft 461 kts 325°
2026-04-30 10:40 52.65879 4.23133 34424 ft 461 kts 325°
2026-04-30 10:40 52.70865 4.16476 34422 ft 461 kts 325°
2026-04-30 10:41 52.75843 4.09803 34429 ft 461 kts 325°
2026-04-30 10:41 52.80796 4.03155 34430 ft 462 kts 325°
2026-04-30 10:42 52.85776 3.96444 34433 ft 462 kts 325°
2026-04-30 10:42 52.90755 3.89719 34432 ft 462 kts 324°
2026-04-30 10:43 52.95733 3.82967 34433 ft 462 kts 324°
2026-04-30 10:43 53.00704 3.76196 34431 ft 463 kts 324°
2026-04-30 10:44 53.05679 3.69405 34438 ft 463 kts 324°
2026-04-30 10:44 53.10653 3.62602 34433 ft 463 kts 324°
2026-04-30 10:45 53.15621 3.55788 34428 ft 463 kts 324°
2026-04-30 10:45 53.20586 3.48946 34422 ft 463 kts 324°
2026-04-30 10:46 53.25535 3.42039 34412 ft 464 kts 323°
2026-04-30 10:46 53.30372 3.34879 34412 ft 465 kts 321°
2026-04-30 10:47 53.35137 3.27552 34415 ft 466 kts 321°
2026-04-30 10:47 53.39873 3.20249 34413 ft 466 kts 321°
2026-04-30 10:48 53.44661 3.12925 34421 ft 466 kts 321°
2026-04-30 10:48 53.49455 3.05608 34425 ft 466 kts 321°
2026-04-30 10:49 53.54240 2.98260 34428 ft 466 kts 321°
2026-04-30 10:49 53.59015 2.90876 34430 ft 466 kts 321°
2026-04-30 10:50 53.63786 2.83489 34434 ft 466 kts 321°
2026-04-30 10:50 53.68555 2.76098 34431 ft 466 kts 321°
2026-04-30 10:51 53.73320 2.68688 34430 ft 466 kts 321°
2026-04-30 10:51 53.78078 2.61258 34434 ft 466 kts 321°
2026-04-30 10:52 53.82832 2.53806 34438 ft 466 kts 321°
2026-04-30 10:52 53.87569 2.46330 34439 ft 465 kts 320°
2026-04-30 10:53 53.92277 2.38897 34446 ft 466 kts 320°
2026-04-30 10:53 53.97017 2.31400 34447 ft 466 kts 320°
2026-04-30 10:54 54.01705 2.23971 34455 ft 466 kts 320°
2026-04-30 10:54 54.06439 2.16441 34450 ft 466 kts 320°
2026-04-30 10:55 54.11168 2.08879 34455 ft 466 kts 320°
2026-04-30 10:55 54.15854 2.01342 34458 ft 466 kts 320°
2026-04-30 10:56 54.20395 1.94043 34457 ft 466 kts 320°
2026-04-30 10:56 54.25109 1.86437 34453 ft 466 kts 320°
2026-04-30 10:57 54.29814 1.78814 34460 ft 466 kts 320°
2026-04-30 10:57 54.34513 1.71179 34458 ft 466 kts 320°
2026-04-30 10:58 54.39209 1.63528 34455 ft 466 kts 320°
2026-04-30 10:58 54.43897 1.55854 34454 ft 465 kts 320°
2026-04-30 10:59 54.48580 1.48167 34458 ft 465 kts 320°
2026-04-30 10:59 54.53259 1.40470 34455 ft 466 kts 320°
2026-04-30 11:00 54.57938 1.32752 34456 ft 466 kts 320°
2026-04-30 11:00 54.62576 1.25053 34453 ft 466 kts 320°
2026-04-30 11:01 54.67240 1.17291 34453 ft 466 kts 320°
2026-04-30 11:01 54.71900 1.09524 34453 ft 466 kts 319°
2026-04-30 11:02 54.76557 1.01728 34456 ft 465 kts 319°
2026-04-30 11:02 54.81200 0.93918 34453 ft 465 kts 319°
2026-04-30 11:03 54.85836 0.86106 34449 ft 465 kts 319°
2026-04-30 11:04 54.92779 0.74360 34453 ft 464 kts 319°
2026-04-30 11:04 54.97399 0.66512 34454 ft 464 kts 319°
2026-04-30 11:05 55.01974 0.58706 34450 ft 464 kts 318°
2026-04-30 11:05 55.06517 0.50922 34449 ft 463 kts 318°
2026-04-30 11:06 55.11115 0.43040 34446 ft 463 kts 318°
2026-04-30 11:06 55.15702 0.35140 34446 ft 463 kts 318°
2026-04-30 11:07 55.20280 0.27209 34445 ft 463 kts 318°
2026-04-30 11:07 55.23902 0.20925 34445 ft 463 kts 317°
2026-04-30 11:08 55.29216 0.11689 34449 ft 463 kts 317°
2026-04-30 11:08 55.33783 0.03724 34451 ft 463 kts 317°
2026-04-30 11:09 55.37603 -0.02965 34447 ft 463 kts 317°
2026-04-30 11:09 55.42149 -0.10969 34445 ft 462 kts 317°
2026-04-30 11:10 55.46661 -0.18939 34446 ft 462 kts 317°
2026-04-30 11:10 55.51195 -0.26973 34448 ft 462 kts 317°
2026-04-30 11:11 55.55727 -0.35010 34449 ft 462 kts 317°
2026-04-30 11:11 55.60251 -0.43057 34446 ft 461 kts 316°
2026-04-30 11:12 55.64768 -0.51133 34443 ft 462 kts 316°
2026-04-30 11:12 55.69275 -0.59228 34440 ft 462 kts 316°
2026-04-30 11:13 55.73777 -0.67346 34442 ft 462 kts 316°
2026-04-30 11:13 55.78279 -0.75484 34438 ft 462 kts 316°
2026-04-30 11:14 55.82775 -0.83632 34443 ft 462 kts 316°
2026-04-30 11:14 55.87272 -0.91801 34446 ft 462 kts 315°
2026-04-30 11:15 55.91757 -0.99996 34441 ft 462 kts 315°
2026-04-30 11:15 55.96232 -1.08207 34441 ft 461 kts 315°
2026-04-30 11:16 56.00670 -1.16367 34444 ft 461 kts 315°
2026-04-30 11:16 56.05135 -1.24606 34440 ft 461 kts 315°
2026-04-30 11:17 56.09590 -1.32862 34436 ft 461 kts 315°
2026-04-30 11:17 56.14041 -1.41130 34435 ft 461 kts 315°
2026-04-30 11:18 56.18481 -1.49419 34436 ft 461 kts 314°
2026-04-30 11:18 56.25135 -1.61892 34434 ft 461 kts 314°
2026-04-30 11:19 56.29561 -1.70237 34434 ft 461 kts 314°
2026-04-30 11:19 56.33985 -1.78597 34432 ft 461 kts 314°
2026-04-30 11:20 56.38376 -1.86916 34430 ft 461 kts 314°
2026-04-30 11:20 56.42792 -1.95306 34430 ft 461 kts 314°
2026-04-30 11:21 56.47202 -2.03707 34428 ft 461 kts 313°
2026-04-30 11:21 56.51600 -2.12131 34430 ft 460 kts 313°
2026-04-30 11:22 56.55989 -2.20588 34428 ft 460 kts 313°
2026-04-30 11:22 56.60369 -2.29049 34429 ft 460 kts 313°
2026-04-30 11:23 56.64658 -2.37351 34426 ft 460 kts 313°
2026-04-30 11:24 56.71204 -2.50087 34418 ft 459 kts 313°
2026-04-30 11:24 56.75562 -2.58606 34418 ft 459 kts 312°
2026-04-30 11:25 56.82081 -2.71404 34408 ft 459 kts 312°
2026-04-30 11:26 56.90745 -2.88549 34394 ft 459 kts 311°
2026-04-30 11:26 56.94973 -2.96936 34392 ft 459 kts 311°
2026-04-30 11:27 56.99243 -3.05440 34383 ft 459 kts 311°
2026-04-30 11:27 57.03555 -3.14090 34379 ft 459 kts 311°
2026-04-30 11:28 57.10022 -3.27103 34364 ft 460 kts 311°
2026-04-30 11:29 57.14306 -3.35752 34350 ft 460 kts 310°
2026-04-30 11:29 57.20758 -3.48859 34344 ft 460 kts 310°
2026-04-30 11:30 57.27204 -3.62010 34336 ft 460 kts 310°
2026-04-30 11:31 57.31492 -3.70803 34332 ft 460 kts 310°
2026-04-30 11:31 57.35771 -3.79612 34328 ft 460 kts 310°
2026-04-30 11:32 57.39961 -3.88268 34326 ft 459 kts 309°
2026-04-30 11:32 57.44217 -3.97096 34328 ft 459 kts 309°
2026-04-30 11:33 57.50579 -4.10354 34328 ft 458 kts 309°
2026-04-30 11:33 57.54807 -4.19217 34324 ft 458 kts 309°
2026-04-30 11:34 57.59003 -4.28035 34326 ft 458 kts 309°
2026-04-30 11:34 57.63220 -4.36919 34325 ft 457 kts 308°
2026-04-30 11:35 57.67424 -4.45832 34322 ft 457 kts 308°
2026-04-30 11:35 57.71625 -4.54769 34315 ft 457 kts 308°
2026-04-30 11:36 57.75816 -4.63710 34313 ft 457 kts 308°
2026-04-30 11:36 57.80000 -4.72673 34312 ft 457 kts 308°
2026-04-30 11:37 57.84182 -4.81671 34307 ft 457 kts 307°
2026-04-30 11:37 57.88356 -4.90679 34299 ft 457 kts 307°
2026-04-30 11:38 57.92520 -4.99699 34301 ft 456 kts 307°
2026-04-30 11:38 57.96674 -5.08727 34303 ft 456 kts 307°
2026-04-30 11:39 58.00816 -5.17765 34305 ft 455 kts 307°
2026-04-30 11:39 58.04947 -5.26823 34305 ft 455 kts 307°
2026-04-30 11:40 58.08880 -5.35491 34303 ft 454 kts 307°
2026-04-30 11:40 58.12986 -5.44558 34305 ft 454 kts 307°
2026-04-30 11:41 58.17080 -5.53628 34310 ft 453 kts 307°
2026-04-30 11:41 58.21164 -5.62712 34306 ft 452 kts 306°
2026-04-30 11:42 58.25230 -5.71809 34306 ft 452 kts 306°
2026-04-30 11:42 58.29286 -5.80922 34305 ft 451 kts 306°
2026-04-30 11:43 58.33340 -5.90035 34297 ft 451 kts 306°
2026-04-30 11:43 58.37382 -5.99160 34300 ft 451 kts 306°
2026-04-30 11:44 58.41411 -6.08319 34301 ft 451 kts 306°
2026-04-30 11:44 58.45435 -6.17493 34302 ft 451 kts 306°
2026-04-30 11:45 58.49456 -6.26684 34321 ft 453 kts 304°
2026-04-30 11:45 58.53485 -6.35933 34264 ft 453 kts 304°
2026-04-30 11:46 58.57514 -6.45220 34265 ft 454 kts 304°
2026-04-30 11:46 58.61466 -6.54364 34265 ft 454 kts 304°
2026-04-30 11:47 58.65490 -6.63725 34270 ft 455 kts 303°
2026-04-30 11:47 58.69507 -6.73111 34276 ft 455 kts 303°
2026-04-30 11:48 58.73523 -6.82515 34279 ft 454 kts 303°
2026-04-30 11:48 58.77527 -6.91926 34283 ft 454 kts 303°
2026-04-30 11:49 58.81493 -7.01289 34290 ft 453 kts 303°
2026-04-30 11:49 58.85255 -7.10208 34291 ft 453 kts 302°
2026-04-30 11:50 58.89281 -7.19799 34289 ft 452 kts 302°
2026-04-30 11:50 58.93236 -7.29239 34294 ft 451 kts 302°
2026-04-30 11:51 58.97177 -7.38702 34288 ft 451 kts 302°
2026-04-30 11:51 59.01101 -7.48169 34285 ft 450 kts 302°
2026-04-30 11:52 59.05017 -7.57644 34282 ft 450 kts 302°
2026-04-30 11:52 59.08925 -7.67132 34276 ft 449 kts 301°
2026-04-30 11:53 59.12796 -7.76556 34272 ft 449 kts 301°
2026-04-30 11:53 59.16673 -7.86059 34273 ft 448 kts 301°
2026-04-30 11:54 59.20545 -7.95583 34270 ft 448 kts 301°
2026-04-30 11:54 59.24409 -8.05122 34268 ft 448 kts 301°
2026-04-30 11:55 59.28269 -8.14680 34263 ft 448 kts 300°
2026-04-30 11:55 59.32118 -8.24261 34258 ft 448 kts 300°
2026-04-30 11:56 59.35913 -8.33755 34255 ft 448 kts 300°
2026-04-30 11:56 59.39754 -8.43387 34249 ft 449 kts 300°
2026-04-30 11:57 59.43566 -8.52988 34246 ft 449 kts 300°
2026-04-30 11:57 59.47390 -8.62681 34243 ft 449 kts 299°
2026-04-30 11:58 59.51215 -8.72391 34251 ft 449 kts 299°
2026-04-30 11:58 59.55037 -8.82124 34241 ft 449 kts 299°
2026-04-30 11:59 59.58847 -8.91882 34242 ft 449 kts 299°
2026-04-30 11:59 59.62506 -9.01286 34235 ft 449 kts 298°
2026-04-30 12:00 59.66302 -9.11078 34235 ft 449 kts 298°
2026-04-30 12:00 59.70083 -9.20897 34233 ft 448 kts 298°
2026-04-30 12:01 59.73831 -9.30667 34226 ft 448 kts 298°
2026-04-30 12:01 59.77602 -9.40510 34227 ft 448 kts 298°
2026-04-30 12:02 59.81356 -9.50381 34227 ft 447 kts 297°
2026-04-30 12:02 59.85099 -9.60267 34227 ft 447 kts 297°
2026-04-30 12:03 59.90702 -9.75109 34223 ft 446 kts 297°
2026-04-30 12:04 59.94418 -9.85020 34219 ft 446 kts 297°
2026-04-30 12:04 59.98062 -9.94786 34219 ft 446 kts 297°
2026-04-30 12:05 60.01166 -10.03014 34218 ft 447 kts 298°
2026-04-30 12:05 60.04944 -10.12372 34217 ft 449 kts 300°
2026-04-30 12:06 60.08944 -10.22004 34217 ft 450 kts 300°
2026-04-30 12:06 60.12902 -10.31700 34211 ft 449 kts 299°
2026-04-30 12:07 60.16824 -10.41469 34207 ft 449 kts 299°
2026-04-30 12:07 60.20730 -10.51267 34208 ft 449 kts 299°
2026-04-30 12:08 60.24640 -10.61089 34207 ft 450 kts 299°
2026-04-30 12:08 60.28557 -10.70924 34208 ft 450 kts 299°
2026-04-30 12:09 60.32472 -10.80794 34205 ft 451 kts 299°
2026-04-30 12:09 60.36369 -10.90701 34204 ft 450 kts 299°
2026-04-30 12:10 60.40258 -11.00642 34201 ft 451 kts 298°
2026-04-30 12:10 60.44146 -11.10594 34199 ft 451 kts 299°
2026-04-30 12:11 60.48006 -11.20489 34197 ft 450 kts 299°
2026-04-30 12:11 60.51872 -11.30465 34195 ft 450 kts 298°
2026-04-30 12:12 60.55727 -11.40467 34191 ft 449 kts 298°
2026-04-30 12:12 60.59564 -11.50482 34188 ft 449 kts 299°
2026-04-30 12:13 60.63390 -11.60502 34179 ft 448 kts 299°
2026-04-30 12:13 60.67208 -11.70538 34184 ft 447 kts 299°
2026-04-30 12:14 60.71014 -11.80579 34180 ft 447 kts 299°
2026-04-30 12:14 60.74809 -11.90638 34176 ft 447 kts 299°
2026-04-30 12:15 60.78597 -12.00707 34176 ft 446 kts 300°
2026-04-30 12:15 60.82371 -12.10793 34169 ft 446 kts 300°
2026-04-30 12:16 60.86102 -12.20832 34161 ft 445 kts 299°
2026-04-30 12:16 60.89856 -12.30957 34164 ft 445 kts 300°
2026-04-30 12:17 60.95477 -12.46160 34163 ft 445 kts 299°
2026-04-30 12:17 60.99196 -12.56328 34165 ft 444 kts 299°
2026-04-30 12:18 61.02904 -12.66504 34163 ft 444 kts 299°
2026-04-30 12:18 61.06613 -12.76683 34162 ft 443 kts 298°
2026-04-30 12:19 61.10305 -12.86869 34158 ft 442 kts 298°
2026-04-30 12:19 61.13975 -12.97074 34163 ft 442 kts 298°
2026-04-30 12:20 61.17633 -13.07292 34168 ft 441 kts 298°
2026-04-30 12:20 61.21255 -13.17436 34164 ft 440 kts 297°
2026-04-30 12:21 61.24886 -13.27663 34151 ft 440 kts 297°
2026-04-30 12:21 61.28470 -13.37766 34157 ft 439 kts 297°
2026-04-30 12:22 61.32077 -13.47998 34154 ft 438 kts 297°
2026-04-30 12:22 61.35670 -13.58255 34154 ft 438 kts 296°
2026-04-30 12:23 61.39123 -13.68126 34154 ft 437 kts 296°
2026-04-30 12:23 61.42703 -13.78395 34151 ft 437 kts 296°
2026-04-30 12:24 61.46266 -13.88692 34148 ft 437 kts 296°
2026-04-30 12:24 61.49815 -13.99009 34146 ft 437 kts 296°
2026-04-30 12:25 61.53361 -14.09346 34149 ft 436 kts 295°
2026-04-30 12:25 61.56896 -14.19694 34143 ft 436 kts 295°
2026-04-30 12:26 61.60423 -14.30053 34139 ft 436 kts 295°
2026-04-30 12:26 61.63937 -14.40436 34141 ft 436 kts 295°
2026-04-30 12:27 61.67420 -14.50768 34142 ft 435 kts 295°
2026-04-30 12:27 61.70913 -14.61183 34135 ft 435 kts 295°
2026-04-30 12:28 61.74400 -14.71609 34130 ft 435 kts 295°
2026-04-30 12:28 61.77871 -14.82061 34128 ft 435 kts 295°
2026-04-30 12:29 61.81336 -14.92536 34122 ft 435 kts 295°
2026-04-30 12:29 61.84798 -15.03022 34127 ft 435 kts 295°
2026-04-30 12:30 61.88249 -15.13541 34129 ft 435 kts 295°
2026-04-30 12:30 61.91696 -15.24079 34124 ft 434 kts 295°
2026-04-30 12:31 61.95123 -15.34639 34122 ft 434 kts 295°
2026-04-30 12:31 61.98549 -15.45208 34120 ft 434 kts 295°
2026-04-30 12:32 62.01959 -15.55802 34119 ft 434 kts 295°
2026-04-30 12:32 62.05335 -15.66355 34128 ft 434 kts 296°
2026-04-30 12:33 62.08726 -15.77002 34106 ft 434 kts 296°
2026-04-30 12:33 62.12111 -15.87660 34109 ft 433 kts 296°
2026-04-30 12:34 62.15485 -15.98328 34109 ft 433 kts 296°
2026-04-30 12:34 62.18848 -16.09018 34104 ft 433 kts 296°
2026-04-30 12:35 62.22200 -16.19722 34109 ft 433 kts 296°
2026-04-30 12:35 62.25544 -16.30442 34100 ft 432 kts 296°
2026-04-30 12:36 62.28877 -16.41174 34095 ft 431 kts 296°
2026-04-30 12:36 62.32187 -16.51916 34091 ft 431 kts 296°
2026-04-30 12:37 62.35493 -16.62672 34096 ft 431 kts 296°
2026-04-30 12:37 62.38768 -16.73355 34091 ft 430 kts 296°
2026-04-30 12:38 62.42045 -16.84132 34088 ft 430 kts 296°
2026-04-30 12:38 62.45314 -16.94934 34080 ft 430 kts 296°
2026-04-30 12:39 62.48582 -17.05754 34082 ft 429 kts 296°
2026-04-30 12:39 62.51832 -17.16592 34077 ft 429 kts 296°
2026-04-30 12:40 62.55074 -17.27460 34077 ft 429 kts 296°
2026-04-30 12:40 62.58301 -17.38336 34075 ft 429 kts 296°
2026-04-30 12:41 62.61519 -17.49219 34065 ft 428 kts 296°
2026-04-30 12:41 62.64738 -17.60101 34062 ft 428 kts 296°
2026-04-30 12:42 62.67937 -17.70991 34056 ft 427 kts 296°
2026-04-30 12:42 62.71114 -17.81907 34057 ft 427 kts 296°
2026-04-30 12:43 62.74288 -17.92837 34053 ft 427 kts 296°
2026-04-30 12:43 62.77454 -18.03781 34053 ft 426 kts 296°
2026-04-30 12:44 62.80603 -18.14756 34051 ft 426 kts 296°
2026-04-30 12:44 62.83716 -18.25677 34052 ft 426 kts 296°
2026-04-30 12:45 62.86873 -18.36758 34045 ft 426 kts 296°
2026-04-30 12:45 62.89985 -18.47714 34041 ft 426 kts 296°
2026-04-30 12:46 62.93100 -18.58782 34037 ft 426 kts 296°
2026-04-30 12:46 62.96204 -18.69864 34039 ft 426 kts 296°
2026-04-30 12:47 62.99359 -18.80904 34034 ft 428 kts 298°
2026-04-30 12:47 63.02849 -18.91549 33992 ft 429 kts 301°
2026-04-30 12:48 63.04635 -18.96755 33649 ft 423 kts 301°
2026-04-30 12:48 63.06392 -19.01905 33177 ft 418 kts 301°
2026-04-30 12:48 63.08109 -19.07024 32724 ft 412 kts 301°
2026-04-30 12:48 63.09787 -19.12112 32257 ft 408 kts 301°
2026-04-30 12:49 63.11431 -19.17164 31811 ft 403 kts 300°
2026-04-30 12:49 63.13045 -19.22173 31363 ft 398 kts 300°
2026-04-30 12:49 63.14637 -19.27136 30922 ft 393 kts 300°
2026-04-30 12:49 63.16207 -19.32029 30492 ft 387 kts 300°
2026-04-30 12:50 63.17755 -19.36856 30076 ft 382 kts 300°
2026-04-30 12:50 63.19284 -19.41615 29613 ft 376 kts 300°
2026-04-30 12:50 63.20782 -19.46286 29213 ft 368 kts 300°
2026-04-30 12:50 63.22248 -19.50868 28814 ft 361 kts 300°
2026-04-30 12:51 63.23685 -19.55365 28447 ft 353 kts 300°
2026-04-30 12:51 63.25093 -19.59768 28072 ft 346 kts 300°
2026-04-30 12:51 63.26471 -19.64087 27711 ft 339 kts 300°
2026-04-30 12:51 63.27820 -19.68328 27362 ft 333 kts 300°
2026-04-30 12:52 63.29142 -19.72493 27019 ft 327 kts 299°
2026-04-30 12:52 63.30435 -19.76583 26677 ft 320 kts 299°
2026-04-30 12:52 63.31685 -19.80545 26350 ft 314 kts 299°
2026-04-30 12:52 63.32930 -19.84483 26033 ft 308 kts 299°
2026-04-30 12:53 63.34148 -19.88346 25700 ft 302 kts 299°
2026-04-30 12:53 63.35342 -19.92137 25369 ft 296 kts 298°
2026-04-30 12:53 63.36509 -19.95862 25066 ft 291 kts 298°
2026-04-30 12:53 63.37658 -19.99549 24753 ft 289 kts 298°
2026-04-30 12:54 63.38798 -20.03215 24431 ft 287 kts 298°
2026-04-30 12:54 63.39934 -20.06864 24111 ft 285 kts 298°
2026-04-30 12:54 63.41061 -20.10488 23804 ft 283 kts 298°
2026-04-30 12:54 63.42180 -20.14087 23472 ft 281 kts 298°
2026-04-30 12:55 63.43292 -20.17666 23110 ft 279 kts 298°
2026-04-30 12:55 63.44396 -20.21228 22790 ft 278 kts 298°
2026-04-30 12:55 63.45496 -20.24776 22454 ft 277 kts 298°
2026-04-30 12:55 63.46589 -20.28312 22138 ft 276 kts 297°
2026-04-30 12:56 63.47674 -20.31836 21822 ft 275 kts 297°
2026-04-30 12:56 63.48742 -20.35309 21504 ft 273 kts 297°
2026-04-30 12:56 63.49829 -20.38850 21183 ft 272 kts 297°
2026-04-30 12:56 63.50899 -20.42336 20869 ft 271 kts 297°
2026-04-30 12:57 63.51964 -20.45811 20551 ft 270 kts 297°
2026-04-30 12:57 63.53024 -20.49274 20232 ft 269 kts 297°
2026-04-30 12:57 63.54079 -20.52725 19922 ft 268 kts 297°
2026-04-30 12:57 63.55130 -20.56170 19572 ft 267 kts 297°
2026-04-30 12:58 63.56165 -20.59551 19209 ft 266 kts 297°
2026-04-30 12:58 63.57218 -20.62952 18874 ft 265 kts 297°
2026-04-30 12:58 63.58272 -20.66342 18523 ft 264 kts 297°
2026-04-30 12:58 63.59320 -20.69717 18162 ft 263 kts 297°
2026-04-30 12:59 63.60363 -20.73086 17780 ft 262 kts 297°
2026-04-30 12:59 63.61401 -20.76458 17426 ft 262 kts 297°
2026-04-30 12:59 63.62434 -20.79824 17078 ft 261 kts 297°
2026-04-30 12:59 63.63464 -20.83185 16724 ft 261 kts 297°
2026-04-30 13:00 63.64158 -20.85455 16501 ft 260 kts 297°
2026-04-30 13:00 63.65181 -20.88806 16152 ft 260 kts 297°
2026-04-30 13:00 63.66204 -20.92158 15802 ft 259 kts 297°
2026-04-30 13:00 63.67223 -20.95498 15461 ft 259 kts 297°
2026-04-30 13:01 63.68230 -20.98795 15117 ft 258 kts 297°
2026-04-30 13:01 63.69244 -21.02126 14778 ft 258 kts 297°
2026-04-30 13:01 63.70258 -21.05460 14443 ft 257 kts 297°
2026-04-30 13:01 63.71268 -21.08791 14102 ft 257 kts 297°
2026-04-30 13:02 63.72277 -21.12119 13764 ft 257 kts 297°
2026-04-30 13:02 63.73284 -21.15446 13400 ft 256 kts 297°
2026-04-30 13:02 63.74285 -21.18769 13055 ft 256 kts 297°
2026-04-30 13:02 63.75283 -21.22087 12721 ft 255 kts 297°
2026-04-30 13:03 63.76278 -21.25395 12372 ft 254 kts 298°
2026-04-30 13:03 63.77270 -21.28690 12059 ft 253 kts 298°
2026-04-30 13:03 63.78257 -21.31969 11734 ft 252 kts 298°
2026-04-30 13:03 63.79236 -21.35238 11399 ft 250 kts 298°
2026-04-30 13:04 63.80204 -21.38479 11073 ft 247 kts 298°
2026-04-30 13:04 63.81160 -21.41683 10760 ft 244 kts 298°
2026-04-30 13:04 63.82107 -21.44851 10436 ft 242 kts 298°
2026-04-30 13:04 63.83045 -21.47996 10127 ft 240 kts 298°
2026-04-30 13:05 63.83976 -21.51124 9815 ft 239 kts 298°
2026-04-30 13:05 63.84904 -21.54243 9476 ft 238 kts 298°
2026-04-30 13:05 63.85828 -21.57361 9158 ft 238 kts 298°
2026-04-30 13:06 63.87669 -21.63596 8539 ft 238 kts 298°
2026-04-30 13:06 63.88591 -21.66717 8217 ft 238 kts 298°
2026-04-30 13:06 63.89510 -21.69837 7912 ft 238 kts 298°
2026-04-30 13:06 63.90416 -21.72911 7613 ft 237 kts 298°
2026-04-30 13:07 63.91331 -21.76016 7308 ft 236 kts 298°
2026-04-30 13:07 63.92242 -21.79114 6999 ft 236 kts 298°
2026-04-30 13:07 63.93157 -21.82243 6571 ft 246 kts 298°
2026-04-30 13:07 63.94125 -21.85570 6034 ft 255 kts 299°
2026-04-30 13:08 63.95115 -21.88957 5512 ft 260 kts 299°
2026-04-30 13:08 63.96109 -21.92342 5298 ft 253 kts 299°
2026-04-30 13:08 63.97072 -21.95598 5160 ft 243 kts 299°
2026-04-30 13:08 63.97932 -21.98803 4957 ft 232 kts 288°
2026-04-30 13:09 63.98356 -22.02243 4800 ft 224 kts 272°
2026-04-30 13:09 63.98402 -22.05719 4450 ft 218 kts 266°
2026-04-30 13:09 63.98410 -22.09142 4057 ft 215 kts 266°
2026-04-30 13:09 63.98418 -22.12509 3695 ft 208 kts 266°
2026-04-30 13:10 63.98430 -22.15692 3562 ft 196 kts 266°
2026-04-30 13:10 63.98436 -22.18694 3441 ft 181 kts 266°
2026-04-30 13:10 63.98438 -22.21439 3279 ft 166 kts 265°
2026-04-30 13:10 63.98443 -22.23974 3189 ft 152 kts 265°
2026-04-30 13:11 63.98449 -22.26301 3082 ft 142 kts 265°
2026-04-30 13:11 63.98454 -22.28515 2920 ft 138 kts 265°
2026-04-30 13:11 63.98458 -22.30688 2740 ft 137 kts 265°
2026-04-30 13:11 63.98463 -22.32852 2558 ft 136 kts 265°
2026-04-30 13:12 63.98468 -22.35008 2374 ft 136 kts 265°
2026-04-30 13:12 63.98472 -22.37169 2174 ft 137 kts 265°
2026-04-30 13:12 63.98476 -22.39362 1978 ft 140 kts 265°
2026-04-30 13:13 63.98485 -22.43741 1590 ft 135 kts 265°
2026-04-30 13:13 63.98489 -22.45841 1425 ft 134 kts 265°
2026-04-30 13:13 63.98494 -22.50042 1024 ft 133 kts 265°
2026-04-30 13:14 63.98497 -22.52124 833 ft 131 kts 265°
2026-04-30 13:14 63.98499 -22.54193 652 ft 130 kts 265°
2026-04-30 13:14 63.98503 -22.58317 320 ft 130 kts 265°
2026-04-30 13:15 63.98506 -22.60337 180 ft 119 kts 265°
2026-04-30 13:15 63.98504 -22.62894 138 ft 54 kts 270°
2026-04-30 13:15 63.98530 -22.63682 135 ft 46 kts 288°
2026-04-30 13:16 63.98639 -22.64114 121 ft 23 kts 323°
2026-04-30 13:16 63.98786 -22.64152 121 ft 14 kts 360°
2026-04-30 13:16 63.98850 -22.64089 123 ft 9 kts 67°
2026-04-30 13:17 63.98853 -22.63445 130 ft 29 kts 90°
2026-04-30 13:17 63.98854 -22.63038 134 ft 15 kts 90°
2026-04-30 13:17 63.99041 -22.62769 139 ft 28 kts 17°
2026-04-30 13:18 63.99160 -22.62674 140 ft 11 kts 40°
2026-04-30 13:18 63.99237 -22.62452 140 ft 8 kts
2026-04-30 13:18 63.99272 -22.62452 140 ft 2 kts
2026-04-30 13:19 63.99277 -22.62452 140 ft 0 kts